Tracking 31027 objects as of 19-Jul-2025
HD Live streaming from Space Station
objects crossing your sky now

STARLINK-30264

Track STARLINK-30264 now!
10-day predictions
STARLINK-30264 is classified as:


NORAD ID: 57534
Int'l Code: 2023-115P
Perigee: 494.5 km
Apogee: 495.9 km
Inclination: 43.0 °
Period: 94.4 minutes
Semi major axis: 6866 km
RCS: Unknown
Launch date: August 8, 2023
Source: United States (US)
Launch site: AIR FORCE WESTERN TEST RANGE (AFWTR)
Your satellite tracking list
STARLINK-31009
Track 1 satellite(s)




NASA's NSSDC Master Catalog

Two Line Element Set (TLE):
1 57534U 23115P   25199.40717588  .00000082  00000-0  12976-4 0  9991
2 57534  42.9973  91.3514 0001075 247.6194 112.4543 15.25904954109531
Source of the keplerian elements: AFSPC